SHIYAN-28B 01

Last updated on Sun Aug 03 2025 00:02:05 GMT+0000 (Coordinated Universal Time)

1 64753U 25145A 25214.53996448 .00000608 00000+0 68213-4 0 9991 2 64753 10.9980 242.9762 0002821 61.0034 299.0477 14.29203826 4259
UTC large
Height (km)
Speed (km/s)
/
Latitude / Longitude
Inclination (degrees)
Orbital Period (minutes)
Azimuth
Elevation
Range (km)
Doppler Factor

Next 0 passes for location: London (51.5072 / 0.1276)

Sorry there are no passes over London.